Temp
2 1 2 2 1 2 3 3 4 4 5 6 6 7 7 7 7 7 7 7 7 6 6 7 7 8 8
2 1 0 0 1 1 1 3 3 4 4 4 5 6 6 7 7 7 7 7 7 7 6 7 7 7 7
-1 -0 -0 0 1 1 1 2 2 3 3 4 5 5 6 6 6 7 7 7 7 7 6 7 6 6 6
-0 -0 -0 1 1 1 2 2 2 2 3 3 4 4 5 5 6 6 6 6 7 7 7 7 6 6 6
-2 -2 -1 -0 -0 0 1 1 2 2 2 2 3 4 5 4 5 5 5 6 6 6 7 6 6 6 7
-2 -2 -2 -1 -1 -0 -0 -0 0 1 1 2 1 2 4 4 4 5 4 4 5 5 6 6 7 7 7
-2 -2 -2 -2 -2 -1 -1 -1 -1 -0 0 1 2 2 3 3 3 4 4 4 4 5 5 6 7 6 6
-0 -0 -1 -0 -1 -2 -3 -2 -2 -1 -1 -1 1 2 2 3 2 3 3 4 4 4 5 5 6 6 6
-1 -0 -1 -1 -1 -2 -2 -3 -3 -3 -2 -2 -0 0 1 2 2 3 3 3 3 3 4 5 5 5 5
-0 -1 -1 -1 -2 -2 -2 -2 -4 -5 -3 -3 -3 -2 -2 -0 1 1 1 1 1 2 4 4 4 4 5
0 -0 -1 -1 -1 -2 -2 -3 -3 -4 -3 -6 -5 -4 -3 -3 -1 -0 -0 0 0 1 1 3 4 4 4
0 0 -1 -2 -2 -2 -2 -2 -2 -3 -3 -4 -6 -6 -5 -4 -4 -2 -2 -1 -2 -1 0 1 1 4 4
0 0 -2 -2 -2 -2 -3 -3 -3 -3 -3 -3 -6 -6 -6 -6 -5 -4 -4 -2 -2 -2 -2 -1 0 1 2
-1 -1 -2 -2 -3 -3 -3 -4 -4 -3 -4 -5 -7 -7 -7 -7 -6 -5 -4 -5 -3 -3 -3 -2 -2 -1 1
-3 -2 -3 -3 -3 -4 -4 -5 -5 -4 -4 -6 -7 -8 -7 -7 -7 -5 -5 -5 -5 -5 -5 -4 -4 -2 -1
-4 -3 -3 -4 -4 -5 -5 -5 -5 -5 -5 -6 -7 -7 -7 -7 -6 -6 -6 -6 -6 -6 -6 -5 -3 -4 -3
-4 -4 -4 -5 -4 -5 -5 -6 -6 -6 -6 -7 -7 -8 -8 -8 -7 -7 -7 -7 -7 -7 -7 -7 -5 -4 -4
Height
1424 1423 1421 1418 1417 1416 1415 1414 1415 1415 1414 1414 1413 1412 1411 1410 1410 1409 1408 1406 1405 1404 1403 1404 1404 1404 1404
1418 1417 1415 1414 1412 1410 1409 1408 1409 1409 1408 1407 1407 1406 1406 1404 1403 1402 1401 1400 1398 1396 1395 1395 1394 1393 1392
1413 1414 1411 1410 1407 1405 1404 1403 1403 1403 1402 1401 1401 1400 1399 1398 1396 1395 1394 1393 1391 1388 1386 1386 1385 1383 1380
1410 1407 1406 1405 1404 1401 1398 1398 1397 1397 1396 1395 1393 1393 1392 1390 1389 1388 1388 1386 1383 1382 1380 1377 1373 1371 1367
1406 1403 1401 1399 1398 1396 1393 1391 1390 1390 1388 1388 1386 1385 1385 1383 1381 1380 1379 1377 1376 1374 1372 1369 1363 1359 1351
1400 1399 1397 1395 1393 1391 1389 1387 1384 1384 1381 1378 1378 1376 1376 1376 1374 1372 1371 1371 1369 1367 1364 1362 1356 1350 1341
1394 1393 1391 1390 1388 1385 1384 1382 1380 1377 1375 1368 1371 1368 1369 1368 1367 1366 1365 1364 1362 1360 1358 1355 1350 1345 1337
1388 1386 1385 1383 1382 1379 1377 1375 1373 1372 1371 1364 1363 1361 1361 1361 1360 1359 1358 1357 1355 1353 1351 1349 1345 1342 1336
1383 1381 1379 1377 1376 1374 1371 1369 1365 1364 1364 1361 1359 1355 1354 1354 1354 1353 1352 1351 1349 1348 1345 1344 1341 1338 1335
1377 1375 1374 1372 1370 1369 1367 1364 1362 1359 1359 1359 1356 1354 1350 1349 1349 1348 1347 1346 1345 1342 1340 1340 1338 1334 1332
1369 1368 1368 1366 1365 1363 1361 1359 1356 1355 1355 1354 1350 1350 1350 1345 1344 1344 1342 1339 1339 1338 1335 1333 1334 1331 1329
1361 1361 1360 1360 1358 1357 1355 1353 1351 1350 1349 1348 1344 1344 1344 1341 1338 1337 1336 1335 1334 1332 1330 1328 1327 1327 1325
1352 1352 1352 1352 1351 1350 1349 1347 1345 1344 1342 1340 1338 1339 1339 1337 1333 1330 1329 1328 1327 1326 1325 1323 1322 1322 1322
1344 1344 1344 1344 1343 1343 1342 1341 1340 1340 1337 1334 1334 1334 1333 1331 1329 1325 1325 1324 1322 1321 1321 1319 1318 1317 1316
1336 1336 1336 1336 1335 1335 1334 1334 1334 1332 1331 1331 1330 1330 1328 1327 1324 1321 1319 1318 1317 1317 1316 1314 1314 1312 1311
1328 1328 1327 1329 1328 1328 1327 1327 1327 1326 1325 1325 1325 1325 1324 1323 1321 1318 1316 1315 1314 1314 1312 1311 1309 1308 1307
1317 1318 1319 1321 1321 1320 1320 1321 1321 1319 1319 1320 1320 1321 1320 1319 1318 1316 1314 1312 1310 1309 1309 1307 1305 1305 1304
Wind_Speed
32 31 32 26 22 20 18 16 16 15 16 17 18 20 20 20 21 22 23 22 23 24 27 31 33 36 37
28 26 24 22 20 23 21 15 15 16 15 17 17 18 18 20 21 21 21 23 26 28 29 29 33 37 41
27 23 23 21 21 19 17 15 17 18 18 19 18 18 20 21 23 23 23 23 23 24 22 25 33 38 44
23 26 22 19 16 17 19 20 24 23 22 21 19 17 18 20 23 24 25 25 24 23 29 29 32 35 45
23 23 22 19 18 19 21 22 21 22 24 26 24 22 21 19 22 21 22 24 26 24 26 30 31 42 38
22 22 23 24 17 21 22 25 25 23 25 32 31 29 22 20 22 21 23 24 23 26 26 29 30 36 31
25 24 23 24 25 27 25 24 27 28 28 33 27 28 22 20 22 22 23 25 27 27 25 26 29 32 28
21 22 24 24 22 21 25 28 28 27 24 28 26 25 23 21 22 25 25 25 26 27 21 23 24 26 23
20 21 21 21 21 23 24 24 27 22 24 25 25 23 22 19 18 20 22 23 20 20 17 17 20 21 20
21 21 20 20 19 21 21 23 21 19 10 16 22 24 18 23 16 13 15 18 23 23 21 20 21 20 19
24 21 19 20 19 20 20 21 22 24 23 22 23 23 21 23 25 23 25 24 21 21 20 19 19 19 15
26 23 21 20 20 20 21 21 22 24 23 21 22 22 23 28 28 25 24 23 24 21 19 17 17 17 15
28 25 21 21 21 20 20 21 21 19 19 18 17 17 20 23 27 29 28 26 26 23 18 18 17 16 14
29 25 23 22 21 20 20 18 21 16 13 13 13 15 19 21 22 25 23 19 21 25 24 20 17 15 16
29 26 24 22 21 19 19 18 19 17 13 10 12 14 16 18 22 19 18 17 16 18 18 15 12 13 14
30 27 25 22 20 19 19 19 19 15 14 12 11 14 16 15 14 12 12 14 13 15 17 18 13 12 12
28 27 23 22 21 20 18 18 17 15 13 12 13 12 15 17 13 10 10 12 14 15 16 17 18 12 11
Wind_Direction
286 289 297 306 306 300 285 277 277 279 282 278 278 279 282 286 286 292 296 296 299 295 280 275 276 274 272
293 303 308 311 307 298 301 287 285 280 283 287 285 282 275 277 280 286 291 297 300 300 285 282 281 281 278
298 304 308 316 318 317 306 296 286 285 282 282 288 281 272 277 278 283 289 297 306 313 298 292 289 285 280
281 291 301 309 307 308 302 293 295 292 290 285 288 280 275 284 282 285 285 289 295 302 303 297 298 295 299
288 294 302 311 311 312 312 315 306 301 295 292 294 286 283 287 287 287 285 287 290 297 304 309 312 309 293
283 284 292 302 303 302 302 304 308 303 298 298 298 294 294 290 289 288 292 298 302 293 300 307 317 318 301
275 281 286 287 291 296 298 296 296 296 303 300 305 304 305 294 288 288 291 293 296 296 294 305 310 324 318
279 282 281 290 292 290 288 295 293 296 304 302 305 301 302 293 285 286 288 292 297 297 293 305 311 318 327
278 281 283 288 292 292 291 292 298 302 299 294 305 307 305 304 296 285 280 286 295 299 305 301 314 317 327
280 282 282 285 288 288 288 290 294 309 296 295 297 305 311 299 289 290 293 296 299 295 291 293 301 309 313
280 280 282 284 286 287 286 286 287 281 284 287 289 293 294 293 290 290 291 290 293 292 295 292 285 294 299
276 278 284 281 283 285 286 284 285 284 288 282 275 284 287 290 294 291 291 293 296 293 286 288 291 279 279
275 278 280 280 283 284 283 285 285 288 290 286 277 274 275 279 288 291 295 294 290 293 289 284 281 279 274
271 275 274 277 281 284 282 280 279 283 285 287 277 274 277 281 287 290 295 292 283 289 292 289 286 282 275
270 270 269 272 276 278 277 275 274 284 284 273 274 279 280 289 292 299 297 291 291 295 299 293 287 281 276
265 265 264 267 271 271 269 268 270 276 279 282 275 277 282 286 284 301 300 301 299 302 310 305 292 278 271
253 255 257 260 265 267 265 262 267 273 276 277 277 278 287 291 299 301 317 310 302 303 308 311 309 306 279